Location: Helsinki
(60.1699°N, 24.9384°E)
Time: 03:54:16
(UTC+03:00)

Envisat - Pass Details

Date: 23 August 2022
Orbit: 763 x 765 km, 98.2° (Epoch: 30 September)

Event Time Altitude Azimuth Distance (km) Brightness Sun altitude
Rises 04:04:31 0° 24° (NNE) 3,248 7.9 -11.4°
Reaches altitude 10° 04:08:12 10° 51° (NE) 2,315 7.0 -11.1°
Maximum altitude 04:10:34 13° 79° (E) 2,096 6.1 -11.0°
Drops below altitude 10° 04:12:56 10° 107° (ESE) 2,307 5.8 -10.8°
Sets 04:16:35 0° 135° (SE) 3,227 6.2 -10.4°
